TimeEDT,TemperatureF,Dew PointF,Humidity,Sea Level PressureIn,VisibilityMPH,Wind Direction,Wind SpeedMPH,Gust SpeedMPH,PrecipitationIn,Events,Conditions,WindDirDegrees,DateUTC
12:51 AM,66.0,62.1,87,29.93,10.0,ESE,6.9,-,N/A,,Mostly Cloudy,120,2011-09-26 04:51:00
1:51 AM,64.9,62.1,90,29.91,10.0,ESE,8.1,-,N/A,,Clear,120,2011-09-26 05:51:00
2:51 AM,64.0,61.0,90,29.90,10.0,ESE,8.1,-,N/A,,Clear,110,2011-09-26 06:51:00
3:51 AM,63.0,61.0,93,29.89,10.0,ESE,8.1,-,N/A,,Partly Cloudy,120,2011-09-26 07:51:00
4:51 AM,63.0,61.0,93,29.88,10.0,East,10.4,-,N/A,,Partly Cloudy,100,2011-09-26 08:51:00
5:51 AM,64.0,61.0,90,29.87,10.0,East,8.1,-,N/A,,Mostly Cloudy,100,2011-09-26 09:51:00
6:51 AM,64.4,60.8,88,29.90,10.0,ESE,12.7,-,N/A,,Mostly Cloudy,110,2011-09-26 10:51:00
7:51 AM,64.9,62.1,90,29.89,10.0,ESE,11.5,-,N/A,,Mostly Cloudy,110,2011-09-26 11:51:00
8:51 AM,66.9,62.1,84,29.88,10.0,ESE,12.7,-,N/A,,Overcast,110,2011-09-26 12:51:00
9:51 AM,68.0,63.0,84,29.88,10.0,ESE,8.1,-,N/A,,Overcast,120,2011-09-26 13:51:00
10:51 AM,71.1,63.0,75,29.88,10.0,SE,11.5,20.7,N/A,,Overcast,130,2011-09-26 14:51:00
11:51 AM,73.9,63.0,68,29.88,10.0,SSE,12.7,-,N/A,,Mostly Cloudy,150,2011-09-26 15:51:00
12:51 PM,75.0,63.0,66,29.87,10.0,SSE,11.5,-,N/A,,Overcast,150,2011-09-26 16:51:00
1:51 PM,78.1,64.0,62,29.84,10.0,ESE,11.5,-,N/A,,Mostly Cloudy,120,2011-09-26 17:51:00
2:51 PM,79.0,64.9,62,29.82,10.0,SE,11.5,-,N/A,,Overcast,130,2011-09-26 18:51:00
3:51 PM,80.1,64.9,60,29.80,10.0,ESE,10.4,-,N/A,,Mostly Cloudy,110,2011-09-26 19:51:00
4:51 PM,78.8,64.4,61,29.79,10.0,ESE,13.8,-,N/A,,Mostly Cloudy,120,2011-09-26 20:51:00
5:51 PM,77.0,64.0,64,29.78,10.0,SE,6.9,16.1,N/A,,Mostly Cloudy,140,2011-09-26 21:51:00
6:12 PM,66.2,64.4,94,29.83,2.0,WSW,9.2,28.8,0.06,Rain,Rain,240,2011-09-26 22:12:00
6:24 PM,64.4,64.4,100,29.84,2.0,SW,18.4,24.2,0.31,Rain-Thunderstorm,Thunderstorms and Rain,230,2011-09-26 22:24:00
6:51 PM,64.0,63.0,96,29.83,2.0,WSW,10.4,18.4,0.38,Rain-Thunderstorm,Heavy Thunderstorms and Rain,250,2011-09-26 22:51:00
7:06 PM,64.4,62.6,94,29.85,5.0,SW,5.8,-,0.02,Rain-Thunderstorm,Light Thunderstorms and Rain,220,2011-09-26 23:06:00
7:38 PM,64.4,62.6,94,29.86,10.0,SE,3.5,-,0.02,Rain,Light Rain,130,2011-09-26 23:38:00
7:51 PM,64.0,62.1,93,29.84,6.0,East,4.6,-,0.04,Rain,Light Rain,90,2011-09-26 23:51:00
8:15 PM,64.4,62.6,94,29.85,10.0,ENE,6.9,-,0.00,,Overcast,70,2011-09-27 00:15:00
8:51 PM,64.0,62.1,93,29.84,8.0,East,10.4,-,0.00,Rain,Light Rain,100,2011-09-27 00:51:00
9:29 PM,64.4,62.6,94,29.85,2.0,East,6.9,-,0.09,Rain,Light Rain,100,2011-09-27 01:29:00
9:39 PM,64.4,62.6,94,29.85,6.0,East,9.2,-,0.09,Rain,Light Rain,90,2011-09-27 01:39:00
9:51 PM,64.0,63.0,96,29.83,6.0,East,9.2,-,0.09,,Overcast,90,2011-09-27 01:51:00
10:19 PM,64.4,62.6,94,29.86,2.0,SW,6.9,-,0.03,Rain,Heavy Rain,230,2011-09-27 02:19:00
10:32 PM,64.4,62.6,94,29.85,1.5,Calm,Calm,-,0.51,Rain,Heavy Rain,0,2011-09-27 02:32:00
10:51 PM,64.0,63.0,96,29.84,2.0,WSW,4.6,-,0.74,Rain-Thunderstorm,Heavy Thunderstorms and Rain,240,2011-09-27 02:51:00
11:34 PM,64.4,62.6,94,29.87,1.5,SSE,3.5,-,0.20,Rain-Thunderstorm,Heavy Thunderstorms and Rain,160,2011-09-27 03:34:00
11:44 PM,64.4,62.6,94,29.88,3.0,South,4.6,-,0.22,Rain-Thunderstorm,Light Thunderstorms and Rain,190,2011-09-27 03:44:00
11:51 PM,64.0,63.0,96,29.86,5.0,SW,5.8,-,0.23,Rain-Thunderstorm,Light Thunderstorms and Rain,220,2011-09-27 03:51:00